Regional Weather Roundup
Issued by NWS Jackson, KY

Home | Current Version | Previous Version | Text Only | Print | Product List | Glossary Off
Versions: 1 2 3 4 5 6 7 8 9 10 11 12 13 14 15 16 17 18 19 20 21 22 23 24 25 26 27 28 29 30 31 32 33 34 35 36 37 38 39 40 41 42 43 44 45 46 47 48 49 50

000
ASUS43 KJKL 202211
RWRJKL

EAST KENTUCKY HOURLY WEATHER ROUNDUP
NATIONAL WEATHER SERVICE JACKSON KY
600 PM EDT MON OCT 20 2014

NOTE: "FAIR" INDICATES FEW OR NO CLOUDS BELOW 12,000 FEET WITH
NO SIGNIFICANT WEATHER AND/OR OBSTRUCTIONS TO VISIBILITY.

* THESE REPORTS ARE NOT UNDER NWS QUALITY CONTROL AND MAY NOT
  REPORT WEATHER SUCH AS PRECIPITATION AND FOG.

KYZ079-080-083-085-087-088-110-112-115-119-120-202300
...EASTERN KENTUCKY...

CITY           SKY/WX    TMP DP  RH WIND       PRES   REMARKS
JACKSON        PTCLDY    57  49  74 VRB6      29.94F
LONDON         MOCLDY    63  47  55 SW8       29.95F
SOMERSET*      PTCLDY    61  45  55 W13       29.97F
MONTICELLO*    PTCLDY    63  49  60 SW9       29.98F
WILLIAMSBURG*  MOCLDY    61  48  63 CALM      29.97F
MIDDLESBORO*   CLOUDY    63  49  60 SW6       29.98S
HARLAN APT*    CLOUDY    61  45  55 CALM      29.97S
BLACK MTN*       N/A     48  45  87 S8          N/A
PIKEVILLE APT* CLOUDY    55  50  82 CALM      29.95F
BIG SANDY*     CLOUDY    58  49  72 SW5       29.94F
MOREHEAD APT*  MOCLDY    59  46  63 SW12      29.93S
$$

KYZ035-036-041-042-044-050-067-078-099-202300
...CENTRAL KENTUCKY...

CITY           SKY/WX    TMP DP  RH WIND       PRES   REMARKS
MT STERLING*   PTCLDY    61  46  59 SW13      29.92S
FLEMING/MASON* CLOUDY    59  46  63 SW9       29.91R
DANVILLE*      CLEAR     63  45  51 SW15G22   29.93S
RICHMOND*      MOCLDY    61  45  55 SW9       29.92F
LEXINGTON      CLEAR     64  48  56 SW9       29.91R
FRANKFORT      CLEAR     63  49  60 SW12      29.89R
$$

KYZ091>093-OHZ055-061-077-WVZ005-015-034-035-042-202300
...SOUTHERN OHIO/WEST VIRGINIA...

CITY           SKY/WX    TMP DP  RH WIND       PRES   REMARKS
COVINGTON      PTCLDY    64  50  60 SW8       29.86F
COLUMBUS       TSTM      54  50  87 S3        29.87S
DAYTON         MOCLDY    58  54  86 SW8       29.87R
WILMINGTON     MOCLDY    56  49  77 S7        29.87R
HUNTINGTON     MOCLDY    57  47  69 S10       29.90F
CHARLESTON     CLOUDY    59  47  64 S6        29.92F
PINEVILLE*     CLOUDY    56  55  99 MISG      30.00F
BECKLEY        CLOUDY    54  44  69 S5        29.96F
BLUEFIELD      LGT RAIN  54  45  71 SW3       29.99F
$$

VAZ002-007-008-TNZ017-027-036-066-071-202300
...SOUTHWEST VIRGINIA/EAST TENNESSEE...

CITY           SKY/WX    TMP DP  RH WIND       PRES   REMARKS
WISE*          CLOUDY    54  45  71 SW10      29.99S
JONESVILLE*    MOCLDY    63  48  59 CALM      30.00S
ABINGDON*      CLOUDY    60  48  63 CALM      29.99F
BRISTOL        CLOUDY    62  49  62 SW3       29.97F
KNOXVILLE      CLOUDY    64  51  62 W8        29.97F
OAK RIDGE      CLOUDY    65  50  58 VRB3      29.99S
CROSSVILLE     CLOUDY    61  47  59 W7        30.01R
NASHVILLE      MOSUNNY   66  49  54 SW7       29.98F
$$

...KEY TO REMARKS...
VSB - VISIBILITY IN MILES
WCI - WIND CHILL INDEX
HX  - HEAT INDEX

$$



USA.gov is the U.S. government's official web portal to all federal, state and local government web resources and services.